Theta_e
321 318 317 317 314 314 315 314 313 312 307 302 302 302 300 298 298 297 296 296 296 295 295 295 295 295 295 295 295 294 293 292 291 288 288 286 285 285 286 285 283 282 281
318 317 316 314 313 313 313 313 312 311 304 302 303 302 299 298 297 296 296 295 296 295 295 295 295 295 295 295 294 293 292 292 291 288 286 284 285 285 284 283 283 282 281
316 315 313 312 311 312 313 313 312 309 303 303 302 302 299 298 297 296 296 295 295 295 295 295 294 294 295 294 294 293 292 292 290 287 284 285 285 284 282 282 282 281 281
312 312 311 310 311 312 313 312 312 306 303 302 302 302 299 298 297 296 295 295 295 295 295 295 294 294 294 294 294 293 292 291 289 287 285 284 284 282 281 282 281 281 281
311 310 310 309 311 312 312 311 310 303 302 302 302 302 299 297 297 296 295 296 296 296 295 295 294 294 294 293 293 293 291 291 289 287 284 284 283 282 281 281 281 281 281
309 309 308 309 310 311 311 310 305 302 302 302 302 301 300 298 297 296 296 296 296 296 295 295 294 293 293 293 292 292 291 291 289 286 284 284 283 282 281 280 280 280 279
308 308 308 309 310 310 310 308 303 302 303 302 301 301 301 299 297 296 296 296 296 295 295 295 294 293 292 292 292 291 291 290 288 286 284 283 282 281 281 280 280 280 279
309 308 308 308 308 309 309 304 302 303 303 303 302 301 300 300 298 296 296 296 296 296 295 295 294 293 292 291 290 290 290 289 288 286 284 283 281 280 280 280 279 279 279
309 309 308 308 307 307 306 303 302 303 304 303 302 301 300 300 299 297 296 295 295 295 295 294 294 293 292 291 291 290 289 288 288 286 284 283 280 279 279 279 279 279 278
309 309 308 307 306 306 304 303 303 304 303 303 302 301 300 300 299 298 296 295 295 294 294 294 294 293 292 291 290 289 288 287 287 285 284 283 280 279 278 278 278 278 278
309 308 308 307 306 306 303 303 303 303 303 303 302 303 302 300 299 297 297 296 295 294 294 294 294 292 291 290 289 289 287 285 285 285 284 283 280 278 278 278 277 277 277
308 306 306 306 306 305 304 303 303 303 303 303 303 302 302 301 300 298 297 296 296 294 294 294 293 291 290 290 289 288 286 284 284 284 284 283 282 278 277 277 277 277 277
307 306 305 305 305 305 304 303 302 302 302 303 303 303 303 302 300 299 298 296 295 295 294 293 292 291 290 289 288 287 285 284 284 284 284 283 281 277 277 277 277 277 277
307 306 305 305 305 304 304 303 303 303 303 304 302 301 300 299 299 298 297 296 295 294 293 293 292 290 289 288 288 286 282 283 284 283 283 282 281 278 277 276 276 276 276
306 305 305 305 304 305 305 304 303 301 300 299 299 298 298 297 297 297 296 296 295 293 291 291 291 290 289 288 287 286 284 284 284 283 282 281 281 278 277 276 276 275 276
306 306 305 303 301 300 300 299 299 299 298 297 296 295 295 295 295 295 295 294 294 293 291 291 291 290 289 287 285 284 283 283 284 283 282 281 281 280 278 276 275 275 275
300 300 300 299 299 299 298 296 296 296 296 295 296 295 295 294 293 293 293 292 292 292 291 290 290 288 287 285 283 282 282 283 282 282 282 282 281 280 279 278 276 275 275
299 298 296 296 296 296 297 297 297 297 296 296 295 295 294 293 293 292 292 292 292 291 290 288 286 285 284 284 284 284 284 283 283 283 282 281 281 280 279 279 277 275 274
296 296 297 297 297 297 297 297 297 296 296 295 294 293 293 293 292 292 291 290 289 288 287 286 285 285 285 284 284 284 283 283 283 282 282 282 281 280 279 279 279 276 274
293 293 293 293 293 293 293 293 293 294 295 295 295 294 293 293 293 292 291 290 290 289 285 285 285 285 285 284 284 284 283 283 283 282 282 282 281 280 280 279 279 278 275
293 293 293 292 292 291 291 291 291 291 291 291 291 291 292 292 292 291 291 290 290 289 287 285 284 284 283 283 283 283 283 283 282 282 282 281 281 280 280 279 278 278 275
292 292 291 291 291 290 290 290 289 289 289 289 289 289 289 288 288 288 288 288 288 287 286 286 285 285 284 283 283 282 282 282 282 282 281 281 281 280 280 279 278 278 275
290 290 290 290 289 289 289 288 288 288 288 287 287 287 286 286 286 286 286 286 286 286 286 285 285 285 284 283 282 282 281 281 281 280 280 280 280 280 279 279 278 276 274
290 289 289 289 289 288 288 287 287 287 286 286 286 285 285 285 285 284 284 284 284 284 284 284 284 284 283 283 282 282 281 281 280 280 280 279 280 279 279 278 278 277 275
288 289 289 289 288 287 286 286 285 285 285 284 284 284 283 283 283 283 283 283 283 283 283 283 283 283 283 282 282 281 281 280 280 280 279 279 279 279 279 278 278 277 274
288 288 287 286 286 286 285 284 283 283 283 283 283 283 282 282 282 282 282 282 282 281 281 281 281 281 282 281 281 281 280 280 279 279 278 278 278 278 278 278 277 277 275
Wind_Speed
23 22 21 22 22 21 21 21 21 21 21 18 15 13 12 11 9 7 7 6 6 7 8 9 10 11 12 13 14 14 14 13 14 16 17 15 11 10 10 9 12 11 13
23 22 22 22 22 21 22 23 22 22 21 17 16 15 14 12 10 10 9 8 7 8 9 9 10 12 14 14 14 15 15 15 15 15 17 15 13 11 10 10 13 13 13
23 23 22 22 22 23 24 24 24 23 20 19 17 15 15 15 13 12 10 9 9 9 9 10 11 13 15 15 14 14 15 16 15 15 15 15 15 12 10 11 13 13 14
24 22 22 22 22 23 24 25 24 22 21 19 16 16 18 18 16 13 13 12 11 11 11 11 12 14 16 16 15 15 15 16 15 14 16 16 14 14 13 13 14 14 15
23 22 22 22 23 25 26 25 24 23 21 17 18 19 21 19 17 16 16 14 14 14 13 12 14 14 16 18 17 17 16 16 16 15 16 17 16 15 15 14 15 15 16
23 23 23 24 26 26 26 25 25 22 20 19 19 20 20 21 22 21 19 17 17 18 16 15 16 16 16 18 20 19 18 16 16 15 17 18 17 16 16 15 16 17 16
24 24 25 26 26 26 25 26 25 22 20 19 18 20 23 24 25 24 22 21 21 22 20 18 18 17 18 19 20 20 19 17 17 17 18 18 19 17 17 16 16 17 18
23 25 26 27 27 26 27 26 24 22 20 19 20 21 24 26 27 28 26 25 26 25 23 22 20 20 19 20 21 22 21 20 18 18 19 19 19 18 17 17 17 18 19
25 25 26 26 26 27 27 27 25 22 19 20 21 22 25 26 27 30 31 30 30 29 26 25 24 24 22 22 23 24 23 22 19 18 19 20 19 19 18 18 18 18 20
23 23 24 25 25 26 26 26 23 21 20 20 23 23 24 27 28 30 32 34 34 33 29 27 27 27 24 25 24 25 25 22 21 20 21 22 21 20 19 19 18 18 18
19 20 22 23 23 24 25 25 22 22 23 24 24 25 27 28 29 30 33 37 35 33 31 29 29 28 26 26 27 27 25 23 24 23 23 24 24 23 21 21 20 19 19
19 20 21 22 23 24 25 25 25 26 27 28 28 28 29 30 30 31 33 35 35 35 31 30 28 28 29 27 28 29 27 28 27 25 25 26 26 25 24 23 22 21 20
19 19 19 20 22 23 24 25 26 26 28 28 29 30 30 29 28 28 29 31 32 35 30 29 27 30 31 28 27 28 30 31 27 25 25 26 26 26 26 26 24 23 23
16 17 18 20 20 22 23 22 23 24 25 26 27 27 26 26 25 25 25 26 28 30 33 27 29 30 31 29 26 26 28 33 29 26 26 26 27 27 28 27 25 25 25
16 15 14 13 15 15 16 17 18 19 21 22 23 24 24 24 22 24 24 24 25 25 27 29 32 33 35 34 33 29 32 33 33 31 30 28 27 27 28 28 27 27 27
12 12 11 11 11 12 12 14 16 18 21 23 24 25 25 26 25 24 24 25 25 27 29 31 33 34 36 35 34 33 34 33 33 33 33 31 30 30 29 29 30 29 28
11 8 8 9 11 12 14 15 17 18 20 21 22 24 25 23 23 23 23 23 25 27 28 30 31 32 32 30 29 29 31 32 32 34 34 33 32 32 32 31 32 32 30
8 9 10 11 11 11 12 12 13 14 15 17 18 18 19 19 20 21 21 22 23 25 25 25 26 26 26 27 27 29 28 28 28 29 32 35 35 35 35 34 34 34 31
7 5 6 7 7 9 9 9 10 11 12 13 13 15 16 16 18 19 20 21 21 24 26 26 23 26 24 25 24 26 28 29 29 29 30 31 33 35 37 36 36 35 32
5 4 3 4 5 6 6 7 9 10 10 11 13 14 13 13 14 15 16 17 19 22 24 27 26 28 26 27 26 27 27 27 29 29 31 32 32 33 36 37 37 36 35
2 2 4 6 6 7 6 7 10 11 11 11 13 13 14 15 15 16 16 17 18 19 20 22 24 26 28 28 28 29 30 29 29 29 31 32 32 34 33 35 36 35 35
5 6 7 8 8 10 10 10 12 12 11 12 13 14 15 16 16 17 18 18 19 21 22 24 26 27 28 28 27 28 30 30 30 31 32 32 33 32 33 33 34 35 35
7 8 8 9 9 11 11 11 11 12 12 12 13 14 16 17 17 18 19 20 21 22 22 23 25 26 27 27 27 29 31 32 30 30 31 32 33 33 32 32 31 32 35
9 8 8 8 8 10 10 10 12 12 12 13 13 15 16 17 18 18 19 20 22 23 23 24 25 26 26 27 28 29 30 31 32 32 31 32 32 32 33 32 33 31 32
6 5 6 8 9 10 10 11 12 11 11 12 12 14 15 16 17 18 18 19 20 22 22 23 24 25 26 26 27 29 30 30 31 32 33 33 33 32 33 33 32 29 30
6 8 8 8 8 8 7 7 7 7 8 9 10 12 13 13 14 15 16 17 18 19 21 22 23 24 25 26 26 27 28 29 30 31 31 32 33 34 33 34 33 30 28
Wind_Direction
211 215 218 222 221 221 220 218 217 216 213 210 213 219 219 217 221 234 248 256 281 303 309 320 320 324 325 322 322 320 313 306 298 291 300 300 293 292 298 310 306 311 312
215 219 222 222 220 220 217 214 213 214 211 210 217 222 220 219 225 234 242 263 277 286 304 312 314 319 321 314 314 314 310 308 303 294 295 293 288 289 294 304 304 309 310
215 217 218 218 218 216 213 213 213 211 210 214 219 222 223 225 230 237 246 252 263 283 290 297 308 311 308 305 306 307 307 304 300 292 286 287 287 285 288 294 299 304 309
214 214 216 217 216 213 213 214 213 209 213 217 222 225 227 227 231 238 242 248 260 271 287 295 300 301 299 300 303 304 302 302 298 290 281 279 279 281 284 292 297 302 307
213 214 216 214 211 211 213 213 210 209 215 218 227 231 231 232 238 242 244 249 258 267 273 287 293 296 298 300 298 297 298 300 296 288 276 275 274 277 284 290 295 301 305
214 214 213 209 209 210 213 211 210 211 218 226 233 238 239 238 239 242 246 251 256 262 271 281 287 291 297 298 296 294 296 299 295 284 273 272 271 276 281 287 296 304 310
212 208 206 207 210 211 212 211 211 216 225 235 241 244 246 245 244 245 248 252 257 263 270 277 285 290 294 293 291 288 292 294 289 282 273 269 270 274 278 283 291 297 300
207 205 206 209 211 212 214 213 216 222 232 241 246 249 250 248 248 251 252 255 260 265 270 277 283 288 289 291 289 286 287 288 288 280 272 266 267 272 276 282 288 294 298
209 207 210 212 214 215 215 215 220 228 237 246 254 256 257 260 257 257 257 258 262 266 270 275 282 285 289 288 287 284 283 283 284 277 270 265 265 268 272 278 283 291 298
210 211 213 216 218 220 220 220 226 234 244 250 254 258 263 264 262 261 262 261 263 265 271 276 282 285 285 286 286 283 280 281 279 277 271 266 265 266 266 272 279 285 292
214 212 216 219 222 224 223 225 232 240 247 252 258 263 265 267 268 266 264 266 267 269 273 277 281 284 283 280 283 284 282 275 273 274 272 269 266 267 269 272 276 281 287
208 212 214 218 221 221 222 225 234 241 247 255 261 267 273 273 273 273 270 272 275 273 275 277 279 279 278 279 280 281 277 271 270 274 272 270 266 267 269 271 275 278 283
204 210 213 216 219 221 223 229 237 245 255 262 269 273 275 278 280 277 273 272 273 275 275 277 276 274 274 275 277 276 274 269 271 271 273 272 267 265 266 270 274 278 282
196 205 210 213 215 219 224 231 243 253 261 267 270 275 280 280 277 275 273 271 270 271 276 276 277 276 275 275 272 270 262 270 276 274 273 274 265 262 265 268 272 276 279
186 191 198 201 209 216 228 240 249 257 265 272 277 279 281 283 281 278 279 278 275 273 272 272 271 272 274 275 277 274 265 266 269 271 272 273 269 261 263 267 270 272 276
179 189 196 204 215 226 237 249 259 266 274 277 279 281 281 281 283 281 277 275 275 273 270 270 273 275 275 277 277 274 272 274 271 269 271 271 269 265 261 265 269 271 275
181 192 214 236 244 253 257 263 268 270 274 279 282 282 285 285 281 279 275 274 274 274 273 275 276 279 283 285 283 280 277 276 274 270 270 270 269 268 263 263 268 270 274
210 225 236 246 254 257 260 265 270 278 280 283 284 290 288 288 286 282 283 282 280 279 280 282 284 287 291 291 289 286 285 281 277 273 270 269 269 268 266 263 266 270 274
203 215 234 247 254 269 272 277 286 284 285 288 292 291 289 289 286 285 282 279 280 283 288 289 288 287 291 292 291 289 284 280 279 275 273 272 271 267 266 266 265 268 270
170 176 220 261 267 266 283 296 290 290 291 294 293 290 290 288 287 289 288 286 283 279 276 284 289 289 289 287 288 289 288 281 277 276 275 275 273 272 267 265 263 265 267
198 259 272 268 274 279 287 299 295 292 293 295 293 293 298 302 305 301 300 302 301 296 288 278 279 279 282 281 281 282 282 282 281 280 277 277 276 274 273 268 264 263 264
255 258 261 271 283 290 295 295 287 290 296 298 299 306 308 307 309 307 305 304 300 296 293 290 287 285 284 282 280 279 278 279 279 278 279 279 277 275 272 268 264 262 262
261 268 277 284 289 291 292 291 290 291 294 296 301 303 301 302 305 304 304 304 302 300 299 297 294 291 289 287 281 279 277 278 279 279 277 276 274 272 271 266 262 263 262
270 274 281 287 293 290 288 290 290 294 299 302 307 308 306 307 308 308 308 307 306 305 305 302 300 299 297 293 289 284 280 279 278 277 277 276 274 271 267 265 263 264 262
268 280 288 291 287 282 289 293 291 298 305 313 318 317 315 315 316 316 316 315 314 312 311 309 307 305 302 297 293 290 287 283 279 276 274 273 272 270 265 262 262 262 260
282 288 285 282 285 291 299 298 308 324 341 340 341 338 335 337 337 335 333 330 327 324 321 318 315 311 307 304 300 294 290 287 282 278 276 273 271 269 266 261 259 259 256